This demonstration page uses our WeatherBlox Daily Observations layout. Learn more.

Left ArrowRight Arrow

47.50024, -111.30081

Hourly Observations for July 11, 2020

Temp ( °F °C ) Dew Point ( °F °C ) Humidity (%) Winds ( mph kmh ) Pressure ( in mb ) Visibility ( mi km ) Precip ( " mm )
12:53 am 00:53 Clear 56 13.3 43 6.1 62 62 S 7 11 30.15 1021 10 16 0.00 0.00
1:53 am 01:53 Clear 50 10 42 5.6 74 74 SW 8 13 30.16 1021 10 16 0.00 0.00
2:53 am 02:53 Clear 51 10.6 43 6.1 74 74 S 9 15 30.16 1021 10 16 0.00 0.00
3:53 am 03:53 Clear 51 10.6 42 5.6 71 71 SSW 5 7 30.14 1021 10 16 0.00 0.00
4:53 am 04:53 Clear 51 10.6 41 5 69 69 Calm 30.14 1021 10 16 0.00 0.00
5:53 am 05:53 Sunny 47 8.3 40 4.4 77 77 Calm 30.15 1021 10 16 0.00 0.00
6:53 am 06:53 Sunny 52 11.1 45 7.2 77 77 SW 3 6 30.14 1021 10 16 0.00 0.00
7:53 am 07:53 Sunny 61 16.1 46 7.8 58 58 SSW 8 13 30.12 1020 10 16 0.00 0.00
8:53 am 08:53 Sunny 65 18.3 44 6.7 47 47 SSW 9 15 30.12 1020 10 16 0.00 0.00
9:53 am 09:53 Sunny 70 21.1 45 7.2 41 41 SSW 10 17 30.12 1020 10 16 0.00 0.00
10:53 am 10:53 Sunny 73 22.8 45 7.2 37 37 SSW 10 17 30.10 1019 10 16 0.00 0.00
11:53 am 11:53 Sunny 76 24.4 41 5 29 29 SW 9 15 30.09 1019 10 16 0.00 0.00
12:53 pm 12:53 Sunny 80 26.7 44 6.7 28 28 WSW 9 15 30.06 1018 10 16 0.00 0.00
1:53 pm 13:53 Sunny 80 26.7 41 5 25 25 SW 12 19 30.06 1018 10 16 0.00 0.00
2:53 pm 14:53 Sunny 83 28.3 40 4.4 22 22 SSW 12 19 30.02 1017 10 16 0.00 0.00
3:53 pm 15:53 Sunny 84 28.9 41 5 22 22 WSW 9 15 29.99 1016 10 16 0.00 0.00
4:53 pm 16:53 Sunny 84 28.9 43 6.1 24 24 S 9 15 29.98 1015 10 16 0.00 0.00
5:53 pm 17:53 Sunny 85 29.4 43 6.1 23 23 SW 10 17 29.96 1015 10 16 0.00 0.00
6:53 pm 18:53 Sunny 83 28.3 43 6.1 24 24 SW 9 15 29.93 1013 10 16 0.00 0.00
7:53 pm 19:53 Sunny 79 26.1 47 8.3 32 32 SSW 5 7 29.91 1013 10 16 0.00 0.00
8:53 pm 20:53 Sunny 76 24.4 44 6.7 32 32 SSE 6 9 29.89 1012 10 16 0.00 0.00
9:53 pm 21:53 Clear 68 20 44 6.7 42 42 SSE 6 9 29.89 1012 10 16 0.00 0.00
10:53 pm 22:53 Clear 69 20.6 43 6.1 39 39 SE 10 17 29.87 1012 10 16 0.00 0.00
11:53 pm 23:53 Clear 68 20 42 5.6 39 39 ESE 8 13 29.85 1011 10 16 0.00 0.00

Powered by AerisWeather